CDT,Max TemperatureF,Mean TemperatureF,Min TemperatureF,Max Dew PointF,MeanDew PointF,Min DewpointF,Max Humidity, Mean Humidity, Min Humidity, Max Sea Level PressureIn, Mean Sea Level PressureIn, Min Sea Level PressureIn, Max VisibilityMiles, Mean VisibilityMiles, Min VisibilityMiles, Max Wind SpeedMPH, Mean Wind SpeedMPH, Max Gust SpeedMPH,PrecipitationIn, CloudCover, Events, WindDirDegrees
2011-10-1,59,44,28,38,33,28,100,73,37,30.38,30.31,30.21,10,8,0,10,3,17,0.00,1,Fog,199
2011-10-2,75,56,38,49,40,36,91,62,29,30.22,30.18,30.12,10,10,10,8,4,,0.00,0,,195
2011-10-3,78,60,42,49,44,40,93,63,26,30.22,30.18,30.15,10,10,10,9,2,,0.00,0,,183
2011-10-4,78,62,46,47,43,37,90,54,23,30.21,30.15,30.09,10,10,10,13,5,16,0.00,0,,182
2011-10-5,83,70,58,53,48,46,63,48,28,30.11,30.08,30.04,10,10,10,10,6,,0.00,0,,183
2011-10-6,79,66,52,49,46,42,80,50,27,30.13,30.09,30.05,10,10,10,15,7,23,0.00,0,,175
2011-10-7,81,72,62,55,52,49,65,50,38,30.04,29.95,29.85,10,10,10,26,13,34,0.00,3,,189
2011-10-8,80,74,69,58,53,50,61,47,38,30.09,30.02,29.91,10,10,10,22,15,33,0.00,4,,224
2011-10-9,80,69,58,58,54,44,91,64,29,30.25,30.19,30.14,10,10,10,12,2,16,0.00,4,,172
2011-10-10,75,62,50,53,47,41,92,58,31,30.16,30.03,29.91,10,10,10,18,6,28,0.00,2,Rain,182
2011-10-11,74,64,53,55,50,45,94,68,35,29.92,29.88,29.82,10,10,7,13,6,18,0.00,0,,191
2011-10-12,73,64,55,58,55,53,97,82,55,29.83,29.75,29.69,10,10,7,13,6,16,0.12,5,Rain,182
2011-10-13,57,54,49,54,51,44,99,87,71,29.67,29.60,29.56,10,8,1,16,4,23,0.01,8,Rain,324
2011-10-14,53,46,39,39,36,32,92,70,45,29.68,29.62,29.58,10,10,10,22,10,34,0.00,5,,320
2011-10-15,56,47,38,39,35,32,91,60,40,29.80,29.76,29.71,10,10,10,21,11,29,0.00,3,,302
2011-10-16,55,48,40,37,31,22,86,57,30,29.78,29.75,29.72,10,10,10,28,11,39,0.00,1,,295
2011-10-17,55,46,38,32,27,21,75,51,27,29.82,29.76,29.74,10,10,10,23,12,32,0.00,1,,299
2011-10-18,45,41,37,37,35,33,92,79,62,30.05,29.95,29.84,10,10,5,15,8,17,0.01,8,Rain,10
2011-10-19,46,41,36,35,33,30,91,76,54,30.13,30.08,30.04,10,10,10,18,8,25,0.01,7,,35
2011-10-20,50,42,34,36,31,23,94,69,34,30.02,29.95,29.90,10,10,5,15,8,20,0.01,4,Rain,17
2011-10-21,57,40,22,32,28,21,96,69,34,30.03,29.99,29.95,10,10,10,12,2,,0.00,0,,246
2011-10-22,57,44,30,38,32,29,98,69,33,30.11,30.05,29.98,10,10,7,8,3,,0.00,0,,346
2011-10-23,53,44,34,47,40,31,95,83,68,29.94,29.84,29.76,10,10,4,13,6,18,0.06,4,Rain,258
2011-10-24,54,43,32,40,36,32,98,77,44,30.05,29.98,29.88,10,10,5,8,3,,0.00,3,,304
2011-10-25,46,42,39,38,34,31,95,64,55,30.05,29.98,29.94,10,10,10,14,7,21,0.05,8,Rain,80
2011-10-26,48,40,33,37,34,29,100,82,46,30.10,30.06,30.02,10,9,2,6,1,,0.01,4,,338
2011-10-27,48,38,29,36,30,26,99,81,41,30.08,30.03,29.99,10,10,7,14,2,17,0.00,4,,334
2011-10-28,51,38,25,32,27,21,94,66,31,30.07,30.01,29.95,10,10,10,14,4,17,0.00,4,Rain,269
2011-10-29,50,36,23,31,25,22,97,70,33,30.05,30.00,29.96,10,10,10,9,1,,0.00,1,,260
2011-10-30,44,40,37,36,30,23,91,64,44,29.95,29.86,29.81,10,10,10,13,6,20,0.00,7,,152
2011-10-31,46,39,32,37,35,32,99,86,68,30.00,29.96,29.92,10,9,2,13,2,,0.00,5,,236